Concordia, KS

2:24 PM CDT on October 17, 2017 (GMT -0500)
Blosser Municipal

Weather History for KCNK - July, 2014

Change the Weather History Date:

Monday, July 14, 2014

  Actual Average Record
Temperature  
Mean Temperature 69 °F 79 °F  
Max Temperature 81 °F 91 °F 110 °F (1913)
Min Temperature 57 °F 68 °F 50 °F (1990)
Degree Days  
Heating Degree Days 0 0  
Month to date heating degree days 0 0  
Since 1 June heating degree days 1 13  
Since 1 July heating degree days 0 0  
Cooling Degree Days 4 14  
Month to date cooling degree days 173 192  
Year to date cooling degree days 635 546  
Since 1 June cooling degree days 460 457  
Growing Degree Days 22 (Base 50)    
Moisture  
Dew Point 59 °F    
Average Humidity 65    
Maximum Humidity 90    
Minimum Humidity 39    
Precipitation  
Precipitation 0.07 in 0.14 in 1.12 in (2010)
Month to date precipitation 0.91 1.96  
Year to date precipitation 13.44 16.00  
Snow  
Snow 0.00 in 0.00 in 0.00 in ()
Month to date snowfall 0.0 0.0  
Year to date snowfall 16.9 13.7  
Since 1 July snowfall 0.0 0.0  
Snow Depth 0.00 in    
Sea Level Pressure  
Sea Level Pressure 30.05 in    
Wind  
Wind Speed 9 mph (North)    
Max Wind Speed 22 mph    
Max Gust Speed 27 mph    
Visibility 10 miles    
Events Rain    
T = Trace of Precipitation, MM = Missing Value Source: NWS Daily Summary

Daily Weather History Graph

Daily Weather History Graph

Search for Another Location

Airport or City:

Trip Planner

Search our weather history database for the weather conditions in past years. The results will help you decide how hot, cold, wet, or windy it might be!

Date:

Astronomy

Jul. 14, 2014 Rise Set
Actual Time 6:15 AM CDT 8:57 PM CDT
Civil Twilight 5:43 AM CDT 9:29 PM CDT
Nautical Twilight 5:03 AM CDT 10:08 PM CDT
Astronomical Twilight 4:18 AM CDT 10:53 PM CDT
Moon 10:29 PM CDT (7/14) 8:58 AM CDT (7/14)
Length of Visible Light 15h 45m
Length of Day
14h 42m
Waning Gibbous, 93% of the Moon is Illuminated
Jul 14
Waning Gibbous
Jul 18
Last Quarter
Jul 26
New
Aug 3
First Quarter
Aug 10
Full

Hourly Weather History & Observations

Time (CDT) Temp. Heat Index Dew Point Humidity Pressure Visibility Wind Dir Wind Speed Gust Speed Precip Events Conditions
12:55 AM 72.0 °F - 62.1 °F 71% 29.97 in 10.0 mi SSW 5.8 mph - N/A   Clear
1:55 AM 73.0 °F - 61.0 °F 66% 29.95 in 10.0 mi SSW 10.4 mph - N/A   Clear
2:55 AM 71.1 °F - 61.0 °F 70% 29.95 in 10.0 mi SW 8.1 mph - N/A   Clear
3:55 AM 69.1 °F - 61.0 °F 75% 29.95 in 10.0 mi WSW 4.6 mph - N/A   Clear
4:55 AM 66.0 °F - 61.0 °F 84% 29.96 in 10.0 mi Calm Calm - N/A   Mostly Cloudy
5:55 AM 66.0 °F - 62.1 °F 87% 29.99 in 10.0 mi WNW 5.8 mph - N/A   Scattered Clouds
6:55 AM 69.1 °F - 64.0 °F 84% 30.00 in 10.0 mi ENE 8.1 mph - N/A   Partly Cloudy
7:55 AM 70.0 °F - 64.9 °F 84% 30.03 in 10.0 mi NE 8.1 mph - N/A   Overcast
8:55 AM 71.1 °F - 64.0 °F 78% 30.04 in 10.0 mi East 10.4 mph - N/A   Clear
9:55 AM 73.0 °F - 63.0 °F 71% 30.04 in 10.0 mi ENE 8.1 mph - N/A   Clear
10:55 AM 72.0 °F - 63.0 °F 73% 30.06 in 6.0 mi NNE 11.5 mph - 0.00 in Rain Light Rain
11:55 AM 69.1 °F - 66.0 °F 90% 30.08 in 10.0 mi West 3.5 mph - 0.07 in Rain Light Rain
12:55 PM 75.9 °F - 64.0 °F 67% 30.07 in 10.0 mi NNE 10.4 mph - 0.00 in   Clear
1:55 PM 79.0 °F - 55.9 °F 45% 30.07 in 10.0 mi North 11.5 mph - N/A   Clear
3:55 PM 81.0 °F 80.7 °F 55.0 °F 41% 30.05 in 10.0 mi North 13.8 mph - N/A   Clear
4:55 PM 79.0 °F - 53.1 °F 40% 30.06 in 10.0 mi NNW 16.1 mph 24.2 mph N/A   Clear
5:55 PM 78.1 °F - 52.0 °F 40% 30.07 in 10.0 mi NNW 16.1 mph 23.0 mph N/A   Clear
6:55 PM 75.0 °F - 52.0 °F 44% 30.08 in 10.0 mi North 15.0 mph - N/A   Partly Cloudy
7:55 PM 73.0 °F - 51.1 °F 46% 30.10 in 10.0 mi NNE 11.5 mph - N/A   Partly Cloudy
8:55 PM 68.0 °F - 52.0 °F 56% 30.12 in 10.0 mi North 8.1 mph - N/A   Clear
9:55 PM 64.0 °F - 51.1 °F 63% 30.15 in 10.0 mi North 5.8 mph - N/A   Clear
10:55 PM 62.1 °F - 52.0 °F 70% 30.17 in 10.0 mi North 6.9 mph - N/A   Clear
11:55 PM 59.0 °F - 52.0 °F 78% 30.19 in 10.0 mi NW 4.6 mph - N/A   Clear